EW7069 Weather Reports


Display with metric or nautical units.
time (UTC)temp
F
wind
direction
speed
MPH
gust
MPH
rain 1hr
in
rain 24hr
in
rain mn
in
humidity
%
barometer
mb
20260509154002 65 1 8.0 15.0 0.00 0.00 0.00 44 998.3
20260509152002 65 270 6.0 10.0 0.00 0.00 0.00 46 998.0
20260509151002 64 270 6.0 8.0 0.00 0.00 0.00 47 998.0
20260509150003 64 247 6.0 13.0 0.00 0.00 0.00 49 998.0
20260509145003 62 229 6.0 9.0 0.00 0.00 0.00 51 997.8
20260509144002 62 321 6.0 11.0 0.00 0.00 0.00 52 997.8
20260509143003 62 225 5.0 8.0 0.00 0.00 0.00 53 997.8
20260509141003 60 332 6.0 8.0 0.00 0.00 0.00 60 997.8
20260509140003 59 1 5.0 8.0 0.00 0.00 0.00 63 997.7
20260509135002 59 1 4.0 8.0 0.00 0.00 0.00 69 997.6
20260509134003 56 1 4.0 8.0 0.00 0.00 0.00 75 997.6
20260509133003 54 1 4.0 8.0 0.00 0.00 0.00 78 997.6
20260509132002 54 1 4.0 8.0 0.00 0.00 0.00 81 997.8
20260509131003 54 1 4.0 8.0 0.00 0.00 0.00 84 997.7
20260509130002 53 1 5.0 7.0 0.00 0.00 0.00 87 997.9
20260509125003 53 1 4.0 5.0 0.00 0.00 0.00 89 997.9
20260509124003 52 1 5.0 9.0 0.00 0.00 0.00 89 997.8
20260509123003 51 1 4.0 7.0 0.00 0.00 0.00 90 997.8
20260509122003 51 1 4.0 6.0 0.00 0.00 0.00 90 997.9
20260509121002 50 1 5.0 6.0 0.00 0.00 0.00 89 997.9
20260509120003 50 354 5.0 8.0 0.00 0.00 0.00 89 997.9
20260509115003 50 225 4.0 7.0 0.00 0.00 0.00 90 997.5
20260509111003 49 225 3.0 6.0 0.00 0.00 0.00 89 997.1
20260509110004 49 225 2.0 4.0 0.00 0.00 0.00 89 997.2
20260509105002 48 225 2.0 4.0 0.00 0.00 0.00 89 996.6
20260509104003 48 225 3.0 4.0 0.00 0.00 0.00 90 995.7
20260509103004 47 225 2.0 3.0 0.00 0.00 0.00 89 995.5
20260509101003 45 225 0.0 1.0 0.00 0.00 0.00 89 995.7
20260509095004 45 0 0.0 0.0 0.00 0.00 0.00 88 995.6
20260509093003 45 225 0.0 1.0 0.00 0.00 0.00 88 995.9
20260509092003 46 225 0.0 1.0 0.00 0.00 0.00 88 995.9
20260509091003 45 225 1.0 2.0 0.00 0.00 0.00 88 996.1
20260509090004 45 225 0.0 2.0 0.00 0.00 0.00 88 995.7
20260509085003 45 225 0.0 2.0 0.00 0.00 0.00 87 995.8
20260509084004 45 0 0.0 0.0 0.00 0.00 0.00 87 996.0
20260509083003 45 0 0.0 0.0 0.00 0.00 0.00 87 996.0
20260509082003 45 0 0.0 0.0 0.00 0.00 0.00 87 995.5
20260509081004 45 0 0.0 0.0 0.00 0.00 0.00 87 995.3
20260509080003 45 0 0.0 0.0 0.00 0.00 0.00 86 995.5
20260509075003 46 225 0.0 1.0 0.00 0.00 0.00 86 995.6
20260509073004 45 0 0.0 0.0 0.00 0.00 0.00 85 995.9
20260509072003 45 0 0.0 0.0 0.00 0.00 0.00 85 995.9
20260509071004 45 0 0.0 0.0 0.00 0.00 0.00 84 996.1
20260509070003 44 0 0.0 0.0 0.00 0.00 0.00 85 996.1
20260509064003 44 0 0.0 0.0 0.00 0.00 0.00 84 996.6
20260509063003 44 0 0.0 0.0 0.00 0.00 0.00 83 996.6
20260509062003 44 0 0.0 0.0 0.00 0.00 0.00 83 996.7
20260509061003 44 0 0.0 0.0 0.00 0.00 0.00 82 996.8
20260509060003 44 0 0.0 0.0 0.00 0.00 0.00 82 997.0
20260509055004 44 0 0.0 0.0 0.00 0.00 0.00 81 997.0
20260509054004 44 0 0.0 0.0 0.00 0.00 0.00 81 997.1
20260509053003 44 0 0.0 0.0 0.00 0.00 0.00 80 997.1
20260509052003 44 0 0.0 0.0 0.00 0.00 0.00 79 997.1
20260509051003 44 0 0.0 0.0 0.00 0.00 0.00 78 997.1
20260509045003 45 0 0.0 0.0 0.00 0.00 0.00 74 997.0
20260509044003 45 0 0.0 0.0 0.00 0.00 0.00 72 996.9
20260509043004 45 0 0.0 0.0 0.00 0.00 0.00 70 996.7
20260509042004 45 0 0.0 0.0 0.00 0.00 0.00 67 996.6
20260509041003 45 0 0.0 0.0 0.00 0.00 0.00 64 996.2
20260509040004 46 0 0.0 0.0 0.00 0.00 0.00 62 995.8
20260509035003 47 0 0.0 0.0 0.00 0.00 0.00 61 995.3
20260509033004 48 0 0.0 0.0 0.00 0.00 0.00 56 995.1
20260509032003 48 0 0.0 0.0 0.00 0.00 0.00 53 994.6
20260509031003 48 0 0.0 0.0 0.00 0.00 0.00 52 994.6
20260509030004 49 0 0.0 0.0 0.00 0.00 0.00 51 994.1
20260509025003 50 0 0.0 0.0 0.00 0.00 0.00 48 994.6
20260509024003 51 0 0.0 0.0 0.00 0.00 0.00 48 994.3
20260509023004 52 0 0.0 0.0 0.00 0.00 0.00 46 994.5
20260509022003 53 225 0.0 1.0 0.00 0.00 0.00 49 994.6
20260509020005 54 225 0.0 1.0 0.00 0.00 0.00 51 995.1
20260509015004 55 225 1.0 2.0 0.00 0.00 0.00 51 996.1
20260509014003 55 225 2.0 4.0 0.00 0.00 0.00 51 997.3
20260509013003 54 225 1.0 4.0 0.00 0.00 0.00 52 998.9
20260509012004 54 225 0.0 1.0 0.00 0.00 0.00 50 1000.8
20260509011003 55 225 0.0 2.0 0.00 0.00 0.00 48 1003.1
20260509010003 56 225 0.0 1.0 0.00 0.00 0.00 46 996.6
20260509005004 57 225 1.0 3.0 0.00 0.00 0.00 44 1000.0
20260509004003 57 225 1.0 3.0 0.00 0.00 0.00 42 1001.1
20260509003004 58 225 1.0 2.0 0.00 0.00 0.00 39 1001.9
20260509002004 60 225 2.0 3.0 0.00 0.00 0.00 34 1002.8
20260509001004 61 225 4.0 6.0 0.00 0.00 0.00 32 1003.8
20260509000003 61 225 4.0 9.0 0.00 0.00 0.00 29 1004.9
20260508235004 62 225 3.0 4.0 0.00 0.00 0.00 26 1006.2
20260508234004 63 225 3.0 6.0 0.00 0.00 0.00 24 1006.0
20260508232004 63 225 6.0 9.0 0.00 0.00 0.00 21 1006.7
20260508230003 64 225 6.0 9.0 0.00 0.00 0.00 23 1006.9
20260508225004 65 225 4.0 4.0 0.00 0.00 0.00 23 1006.6
20260508224003 67 225 6.0 8.0 0.00 0.00 0.00 21 1006.4
20260508222004 69 225 5.0 7.0 0.00 0.00 0.00 21 1003.9
20260508221004 68 225 7.0 11.0 0.00 0.00 0.00 19 1002.9
20260508220003 71 225 5.0 8.0 0.00 0.00 0.00 19 1002.4
20260508215004 69 225 4.0 6.0 0.00 0.00 0.00 20 1001.0
20260508214004 70 225 5.0 9.0 0.00 0.00 0.00 18 1000.5
20260508212004 67 225 5.0 7.0 0.00 0.00 0.00 23 998.7
20260508211004 68 225 4.0 7.0 0.00 0.00 0.00 19 998.4
20260508210004 71 225 5.0 9.0 0.00 0.00 0.00 20 998.0
20260508205004 67 225 7.0 13.0 0.00 0.00 0.00 21 997.1
20260508204003 64 225 6.0 11.0 0.00 0.00 0.00 21 996.8
20260508203004 65 280 7.0 11.0 0.00 0.00 0.00 19 996.9
20260508202003 68 229 10.0 13.0 0.00 0.00 0.00 17 1005.7
20260508201004 70 225 7.0 8.0 0.00 0.00 0.00 19 1005.3
20260508200004 65 225 6.0 10.0 0.00 0.00 0.00 23 1004.9
20260508194004 66 293 7.0 11.0 0.00 0.00 0.00 23 1004.4
20260508193004 65 314 4.0 5.0 0.00 0.00 0.00 24 1004.3
20260508191003 66 6 6.0 14.0 0.00 0.00 0.00 22 1003.9
20260508190004 66 335 6.0 9.0 0.00 0.00 0.00 24 1003.5
20260508185004 65 299 8.0 12.0 0.00 0.00 0.00 23 1003.2
20260508183004 64 22 6.0 11.0 0.00 0.00 0.00 21 1002.3
20260508182004 66 31 6.0 11.0 0.00 0.00 0.00 23 1001.9
20260508181003 65 204 6.0 11.0 0.00 0.00 0.00 23 1001.7
20260508180004 64 291 8.0 15.0 0.00 0.00 0.00 20 1001.4
20260508175004 64 267 8.0 11.0 0.00 0.00 0.00 21 1001.1
20260508174003 64 225 8.0 15.0 0.00 0.00 0.00 19 1001.1
20260508173004 65 225 5.0 10.0 0.00 0.00 0.00 23 1001.1
20260508172004 64 225 6.0 11.0 0.00 0.00 0.00 23 1001.2
20260508171004 63 225 7.0 11.0 0.00 0.00 0.00 21 1001.1
20260508170004 62 225 5.0 9.0 0.00 0.00 0.00 24 1000.5
20260508165004 62 225 5.0 11.0 0.00 0.00 0.00 24 1000.3
20260508164003 62 225 4.0 6.0 0.00 0.00 0.00 29 999.9
20260508163004 63 225 4.0 8.0 0.00 0.00 0.00 28 999.6
20260508162004 62 225 2.0 7.0 0.00 0.00 0.00 30 999.5
20260508161004 61 225 4.0 8.0 0.00 0.00 0.00 33 999.3